timestamp,wind_dir_avg,wind_spd_avg,wind_spd_max_dir,wind_spd_gust,battery_voltage,lat,long
2022-03-20 00:04:01+00:00,326.0,5.56,324.0,6.1,12.49,47.59359,-54.27349
2022-03-20 00:14:01+00:00,330.0,6.58,328.0,7.52,12.41,47.59359,-54.27349
2022-03-20 00:24:01+00:00,3.0,5.68,330.0,6.82,12.41,47.59359,-54.27349
2022-03-20 00:34:01+00:00,8.0,5.35,14.0,6.39,12.41,47.59359,-54.27349
2022-03-20 00:44:01+00:00,337.0,5.46,329.0,6.43,12.41,47.59359,-54.27349
2022-03-20 00:54:01+00:00,16.0,5.31,14.0,6.13,12.41,47.59359,-54.27349
2022-03-20 01:04:01+00:00,12.0,6.45,15.0,7.23,12.41,47.59359,-54.27349
2022-03-20 01:14:00+00:00,359.0,6.01,356.0,7.07,12.33,47.59359,-54.27349
2022-03-20 01:24:00+00:00,336.0,5.06,336.0,5.76,12.33,47.59359,-54.27349
2022-03-20 01:34:00+00:00,340.0,5.66,339.0,6.07,12.33,47.59359,-54.27349
2022-03-20 01:44:00+00:00,339.0,5.19,343.0,5.95,12.33,47.59359,-54.27349
2022-03-20 01:54:00+00:00,347.0,5.4,346.0,6.16,12.33,47.59359,-54.27349
2022-03-20 02:04:00+00:00,357.0,4.49,37.0,5.92,12.33,47.59359,-54.27349
2022-03-20 02:14:01+00:00,41.0,6.25,60.0,9.17,12.33,47.59359,-54.27349
2022-03-20 02:24:01+00:00,41.0,6.0,48.0,6.84,12.33,47.59359,-54.27349
2022-03-20 02:34:01+00:00,42.0,5.99,61.0,9.39,12.33,47.59359,-54.27349
2022-03-20 02:44:01+00:00,50.0,5.26,53.0,5.96,12.33,47.59359,-54.27349
2022-03-20 02:54:01+00:00,42.0,5.45,44.0,5.92,12.33,47.59359,-54.27349
2022-03-20 03:04:01+00:00,36.0,5.3,39.0,6.42,12.33,47.59359,-54.27349
2022-03-20 03:14:01+00:00,45.0,5.74,50.0,6.98,12.33,47.59359,-54.27349
2022-03-20 03:24:01+00:00,50.0,5.49,52.0,6.02,12.33,47.59359,-54.27349
2022-03-20 03:34:01+00:00,37.0,5.89,36.0,6.49,12.33,47.59359,-54.27349
2022-03-20 03:44:01+00:00,49.0,5.0,45.0,5.53,12.33,47.59359,-54.27349
2022-03-20 03:54:01+00:00,56.0,5.74,56.0,7.02,12.33,47.59359,-54.27349
2022-03-20 04:04:01+00:00,49.0,7.01,54.0,7.95,12.33,47.59359,-54.27349
2022-03-20 04:14:01+00:00,34.0,7.19,33.0,8.18,12.33,47.59359,-54.27349
2022-03-20 04:24:01+00:00,42.0,8.25,47.0,9.21,12.33,47.59359,-54.27349
2022-03-20 04:34:01+00:00,44.0,8.4,46.0,9.43,12.33,47.59359,-54.27349
2022-03-20 04:44:01+00:00,39.0,7.28,50.0,8.12,12.33,47.59359,-54.27349
2022-03-20 04:54:01+00:00,34.0,7.53,33.0,8.33,12.33,47.59359,-54.27349
2022-03-20 05:04:01+00:00,35.0,8.24,32.0,9.86,12.33,47.59359,-54.27349
2022-03-20 05:14:01+00:00,54.0,5.77,53.0,6.72,12.25,47.59359,-54.27349
2022-03-20 05:24:01+00:00,47.0,6.45,43.0,7.26,12.25,47.59359,-54.27349
2022-03-20 05:34:01+00:00,42.0,6.55,46.0,7.47,12.25,47.59359,-54.27349
2022-03-20 05:44:01+00:00,44.0,7.77,48.0,8.47,12.25,47.59359,-54.27349
2022-03-20 05:54:01+00:00,41.0,6.46,39.0,7.52,12.25,47.59359,-54.27349
2022-03-20 06:04:01+00:00,56.0,4.83,60.0,5.59,12.25,47.59359,-54.27349
2022-03-20 06:14:00+00:00,49.0,5.73,49.0,6.92,12.25,47.59359,-54.27349
2022-03-20 06:24:00+00:00,46.0,5.4,42.0,6.08,12.25,47.59359,-54.27349
2022-03-20 06:34:00+00:00,51.0,4.77,52.0,5.29,12.25,47.59359,-54.27349
2022-03-20 06:44:00+00:00,53.0,5.52,40.0,6.32,12.25,47.59359,-54.27349
2022-03-20 06:54:00+00:00,48.0,6.32,39.0,7.31,12.25,47.59359,-54.27349
2022-03-20 07:04:00+00:00,42.0,6.39,40.0,7.4,12.25,47.59359,-54.27349
2022-03-20 07:14:01+00:00,55.0,5.02,54.0,5.71,12.17,47.59359,-54.27349
2022-03-20 07:24:01+00:00,50.0,4.7,51.0,5.18,12.17,47.59359,-54.27349
2022-03-20 07:34:01+00:00,62.0,4.85,53.0,5.45,12.17,47.59359,-54.27349
2022-03-20 07:44:01+00:00,62.0,4.98,67.0,5.84,12.17,47.59359,-54.27349
2022-03-20 07:54:01+00:00,52.0,5.36,53.0,6.27,12.17,47.59359,-54.27349
2022-03-20 08:04:01+00:00,55.0,4.85,50.0,5.96,12.17,47.59359,-54.27349
2022-03-20 08:14:00+00:00,71.0,4.17,69.0,5.14,12.17,47.59359,-54.27349
2022-03-20 08:24:00+00:00,71.0,4.33,63.0,5.29,12.17,47.59359,-54.27349
2022-03-20 08:34:00+00:00,67.0,4.83,62.0,5.51,12.17,47.59359,-54.27349
2022-03-20 08:44:00+00:00,58.0,5.39,56.0,6.31,12.17,47.59359,-54.27349
2022-03-20 08:54:00+00:00,70.0,4.71,70.0,5.61,12.17,47.59359,-54.27349
2022-03-20 09:04:00+00:00,83.0,3.68,91.0,5.56,12.17,47.59359,-54.27349
2022-03-20 09:14:01+00:00,78.0,3.56,85.0,5.26,12.09,47.59359,-54.27349
2022-03-20 09:24:01+00:00,85.0,3.73,91.0,5.68,12.09,47.59359,-54.27349
2022-03-20 09:34:01+00:00,69.0,3.96,81.0,5.8,12.09,47.59359,-54.27349
2022-03-20 09:44:01+00:00,72.0,4.33,79.0,5.95,12.09,47.59359,-54.27349
2022-03-20 09:54:01+00:00,88.0,4.78,81.0,5.95,12.09,47.59359,-54.27349
2022-03-20 10:04:01+00:00,82.0,5.25,88.0,5.96,12.09,47.59359,-54.27349
2022-03-20 10:14:01+00:00,89.0,2.9,77.0,5.38,12.17,47.59359,-54.27349
2022-03-20 10:24:01+00:00,89.0,4.39,86.0,5.46,12.17,47.59359,-54.27349
2022-03-20 10:34:01+00:00,88.0,4.89,86.0,5.71,12.17,47.59359,-54.27349
2022-03-20 10:44:01+00:00,67.0,3.57,59.0,4.05,12.17,47.59359,-54.27349
2022-03-20 10:54:01+00:00,83.0,4.85,83.0,5.87,12.17,47.59359,-54.27349
2022-03-20 11:04:01+00:00,91.0,4.43,95.0,5.99,12.17,47.59359,-54.27349
2022-03-20 11:14:00+00:00,106.0,4.68,103.0,6.11,12.73,47.59359,-54.27349
2022-03-20 11:24:00+00:00,106.0,4.21,104.0,5.89,12.73,47.59359,-54.27349
2022-03-20 11:34:00+00:00,111.0,4.0,101.0,5.81,12.73,47.59359,-54.27349
2022-03-20 11:44:00+00:00,126.0,4.29,124.0,5.38,12.73,47.59359,-54.27349
2022-03-20 11:54:00+00:00,125.0,4.35,135.0,6.18,12.73,47.59359,-54.27349
2022-03-20 12:04:00+00:00,125.0,5.01,125.0,6.25,12.73,47.59359,-54.27349
2022-03-20 13:14:01+00:00,126.0,4.61,130.0,5.53,13.53,47.59359,-54.27349
2022-03-20 13:24:01+00:00,140.0,4.26,140.0,5.1,13.53,47.59359,-54.27349
2022-03-20 13:34:01+00:00,126.0,3.7,127.0,4.4,13.53,47.59359,-54.27349
2022-03-20 13:44:01+00:00,126.0,5.06,131.0,5.84,13.53,47.59359,-54.27349
2022-03-20 13:54:01+00:00,134.0,4.66,143.0,5.52,13.53,47.59359,-54.27349
2022-03-20 14:04:01+00:00,121.0,4.73,120.0,5.35,13.53,47.59359,-54.27349
2022-03-20 14:14:01+00:00,121.0,4.58,123.0,5.22,13.68,47.59359,-54.27349
2022-03-20 14:24:01+00:00,118.0,3.76,129.0,5.02,13.68,47.59359,-54.27349
2022-03-20 14:34:01+00:00,128.0,4.46,129.0,5.23,13.68,47.59359,-54.27349
2022-03-20 14:44:01+00:00,130.0,4.67,133.0,5.75,13.68,47.59359,-54.27349
2022-03-20 14:54:01+00:00,132.0,4.42,144.0,5.31,13.68,47.59359,-54.27349
2022-03-20 15:04:01+00:00,137.0,5.28,141.0,5.86,13.68,47.59359,-54.27349
2022-03-20 16:14:00+00:00,137.0,5.85,141.0,6.24,13.76,47.59359,-54.27349
2022-03-20 16:24:00+00:00,133.0,4.95,125.0,6.46,13.76,47.59359,-54.27349
2022-03-20 16:34:00+00:00,138.0,5.55,115.0,8.3,13.76,47.59359,-54.27349
2022-03-20 16:44:00+00:00,137.0,6.02,118.0,10.39,13.76,47.59359,-54.27349
2022-03-20 16:54:00+00:00,142.0,5.5,141.0,6.27,13.76,47.59359,-54.27349
2022-03-20 17:04:00+00:00,126.0,7.05,119.0,10.82,13.76,47.59359,-54.27349
2022-03-20 17:14:01+00:00,118.0,7.48,115.0,10.24,13.6,47.59359,-54.27349
2022-03-20 17:24:01+00:00,190.0,4.98,171.0,5.58,13.6,47.59359,-54.27349
2022-03-20 17:34:01+00:00,148.0,5.65,145.0,6.61,13.6,47.59359,-54.27349
2022-03-20 17:44:01+00:00,152.0,5.41,191.0,6.51,13.6,47.59359,-54.27349
2022-03-20 17:54:01+00:00,152.0,5.94,147.0,6.8,13.6,47.59359,-54.27349
2022-03-20 18:04:01+00:00,185.0,6.69,153.0,8.46,13.6,47.59359,-54.27349
2022-03-20 18:14:01+00:00,152.0,8.72,156.0,9.97,13.05,47.59359,-54.27349
2022-03-20 18:24:01+00:00,143.0,8.84,147.0,11.44,13.05,47.59359,-54.27349
2022-03-20 18:34:01+00:00,136.0,6.88,145.0,8.47,13.05,47.59359,-54.27349
2022-03-20 18:44:01+00:00,123.0,9.14,125.0,10.25,13.05,47.59359,-54.27349
2022-03-20 18:54:01+00:00,122.0,5.79,123.0,8.08,13.05,47.59359,-54.27349
2022-03-20 19:04:01+00:00,96.0,4.26,97.0,8.13,13.05,47.59359,-54.27349
2022-03-20 19:14:00+00:00,103.0,5.59,74.0,9.79,13.05,47.59359,-54.27349
2022-03-20 19:24:00+00:00,81.0,4.77,89.0,8.52,13.05,47.59359,-54.27349
2022-03-20 19:34:00+00:00,82.0,5.01,84.0,7.76,13.05,47.59359,-54.27349
2022-03-20 19:44:00+00:00,88.0,6.2,104.0,10.46,13.05,47.59359,-54.27349
2022-03-20 19:54:00+00:00,99.0,5.78,99.0,9.26,13.05,47.59359,-54.27349
2022-03-20 20:04:00+00:00,88.0,3.65,117.0,6.28,13.05,47.59359,-54.27349
2022-03-20 20:14:01+00:00,97.0,5.18,113.0,7.58,12.65,47.59359,-54.27349
2022-03-20 20:24:01+00:00,111.0,4.7,130.0,7.78,12.65,47.59359,-54.27349
2022-03-20 20:34:01+00:00,105.0,3.89,128.0,6.77,12.65,47.59359,-54.27349
2022-03-20 20:44:01+00:00,315.0,0.01,72.0,0.0,12.65,47.59359,-54.27349
2022-03-20 20:54:01+00:00,114.0,5.3,131.0,8.66,12.65,47.59359,-54.27349
2022-03-20 21:04:01+00:00,120.0,6.53,119.0,9.18,12.65,47.59359,-54.27349
2022-03-20 21:14:01+00:00,123.0,5.87,123.0,8.51,12.41,47.59359,-54.27349
2022-03-20 21:24:01+00:00,120.0,5.73,114.0,7.81,12.41,47.59359,-54.27349
2022-03-20 21:34:01+00:00,102.0,3.77,125.0,5.92,12.41,47.59359,-54.27349
2022-03-20 21:44:01+00:00,100.0,4.11,82.0,7.07,12.41,47.59359,-54.27349
2022-03-20 21:54:01+00:00,96.0,4.77,94.0,7.54,12.41,47.59359,-54.27349
2022-03-20 22:04:01+00:00,69.0,4.66,76.0,7.12,12.41,47.59359,-54.27349
2022-03-20 22:14:01+00:00,77.0,5.56,63.0,8.31,12.33,47.59359,-54.27349
2022-03-20 22:24:01+00:00,100.0,4.39,108.0,6.25,12.33,47.59359,-54.27349
2022-03-20 22:34:01+00:00,84.0,4.48,106.0,7.73,12.33,47.59359,-54.27349
2022-03-20 22:44:01+00:00,83.0,5.32,85.0,9.53,12.33,47.59359,-54.27349
2022-03-20 22:54:01+00:00,91.0,5.64,96.0,8.83,12.33,47.59359,-54.27349
2022-03-20 23:04:01+00:00,101.0,7.08,113.0,10.14,12.33,47.59359,-54.27349
2022-03-20 23:14:01+00:00,101.0,6.34,90.0,10.2,12.33,47.59359,-54.27349
2022-03-20 23:24:01+00:00,109.0,7.56,120.0,11.9,12.33,47.59359,-54.27349
2022-03-20 23:34:01+00:00,111.0,7.54,123.0,11.45,12.33,47.59359,-54.27349
2022-03-20 23:44:01+00:00,102.0,6.27,102.0,10.86,12.33,47.59359,-54.27349
2022-03-20 23:54:01+00:00,110.0,7.97,118.0,11.18,12.33,47.59359,-54.27349
